| Back to River Map | <<< Previous Forecast Point | | | Next Forecast Point >>> | Printer Version | Graph Version |  |
|
TRINITY RIVER - HOOPA (HOOC1)
| Latitude: 41.05º N | Longitude: 123.68º W | Elevation: 333 Feet | | Forecast Type: Official Location |
| Location: Humboldt County in California | Bulletin Group: North Coast | River Group: Klamath |
| Issuance Time: | Aug 31 2026 at 7:15 AM PDT | Next Issuance: | Sep 01 2026 at 9:00 AM PDT
| |
| Action/Monitor: 44.0 Feet | Minor Flood: 48.0 Feet | Moderate Flood: 52.0 Feet | Major Flood: 56.0 Feet |
# Tabular Observed and Forecast Hydrograph Information
#
# Location: Trinity River - Hoopa (HOOC1)
#
# File Generation Time: 08/31/2026 at 07:16 AM PDT
# Data Interval: 1 Hour
#
# Most Recent Date & Time of Maximum Observed: 08/31/2026 at 07:00 AM PDT
# Maximum Observed Stage: 12.14 Feet
# Maximum Observed Flow: 1226 cfs
#
# Earliest Date & Time of Maximum Forecast: 09/04/2026 at 02:00 AM PDT
# Maximum Forecast Stage: 12.48 Feet
# Maximum Forecast Flow: 1489 cfs
#
# OBSERVED
#
# Date & Time (Local) Stage (Feet) Flow (cfs) Trend Observed Status
# ---------------------------------------------------------------------------------
08/26/2026 07 AM PDT 11.11 593 Normal
08/26/2026 08 AM PDT 11.11 593 0 Normal
08/26/2026 09 AM PDT 11.12 598 + Normal
08/26/2026 10 AM PDT 11.13 603 + Normal
08/26/2026 11 AM PDT 11.12 598 - Normal
08/26/2026 12 PM PDT 11.12 598 0 Normal
08/26/2026 01 PM PDT 11.13 603 + Normal
08/26/2026 02 PM PDT 11.12 598 - Normal
08/26/2026 03 PM PDT 11.13 603 + Normal
08/26/2026 04 PM PDT 11.13 603 0 Normal
08/26/2026 05 PM PDT 11.13 603 0 Normal
08/26/2026 06 PM PDT 11.12 598 - Normal
08/26/2026 07 PM PDT 11.12 598 0 Normal
08/26/2026 08 PM PDT 11.11 593 - Normal
08/26/2026 09 PM PDT 11.11 593 0 Normal
08/26/2026 10 PM PDT 11.11 593 0 Normal
08/26/2026 11 PM PDT 11.11 593 0 Normal
08/27/2026 12 AM PDT 11.11 593 0 Normal
08/27/2026 01 AM PDT 11.11 593 0 Normal
08/27/2026 02 AM PDT 11.11 593 0 Normal
08/27/2026 03 AM PDT 11.10 588 - Normal
08/27/2026 04 AM PDT 11.11 593 + Normal
08/27/2026 05 AM PDT 11.11 593 0 Normal
08/27/2026 06 AM PDT 11.11 593 0 Normal
08/27/2026 07 AM PDT 11.11 593 0 Normal
08/27/2026 08 AM PDT 11.12 598 + Normal
08/27/2026 09 AM PDT 11.12 598 0 Normal
08/27/2026 10 AM PDT 11.13 603 + Normal
08/27/2026 11 AM PDT 11.13 603 0 Normal
08/27/2026 12 PM PDT 11.13 603 0 Normal
08/27/2026 01 PM PDT 11.13 603 0 Normal
08/27/2026 02 PM PDT 11.13 603 0 Normal
08/27/2026 03 PM PDT 11.13 603 0 Normal
08/27/2026 04 PM PDT 11.13 603 0 Normal
08/27/2026 05 PM PDT 11.13 603 0 Normal
08/27/2026 06 PM PDT 11.12 598 - Normal
08/27/2026 07 PM PDT 11.12 598 0 Normal
08/27/2026 08 PM PDT 11.12 598 0 Normal
08/27/2026 09 PM PDT 11.12 598 0 Normal
08/27/2026 10 PM PDT 11.12 598 0 Normal
08/27/2026 11 PM PDT 11.12 598 0 Normal
08/28/2026 12 AM PDT 11.12 598 0 Normal
08/28/2026 01 AM PDT 11.12 598 0 Normal
08/28/2026 02 AM PDT 11.12 598 0 Normal
08/28/2026 03 AM PDT 11.11 593 - Normal
08/28/2026 04 AM PDT 11.11 593 0 Normal
08/28/2026 05 AM PDT 11.12 598 + Normal
08/28/2026 06 AM PDT 11.12 598 0 Normal
08/28/2026 07 AM PDT 11.12 598 0 Normal
08/28/2026 08 AM PDT 11.12 598 0 Normal
08/28/2026 09 AM PDT 11.12 598 0 Normal
08/28/2026 10 AM PDT 11.13 603 + Normal
08/28/2026 11 AM PDT 11.13 603 0 Normal
08/28/2026 12 PM PDT 11.13 603 0 Normal
08/28/2026 01 PM PDT 11.13 603 0 Normal
08/28/2026 02 PM PDT 11.14 608 + Normal
08/28/2026 03 PM PDT 11.14 608 0 Normal
08/28/2026 04 PM PDT 11.14 608 0 Normal
08/28/2026 05 PM PDT 11.13 603 - Normal
08/28/2026 06 PM PDT 11.13 603 0 Normal
08/28/2026 07 PM PDT 11.12 598 - Normal
08/28/2026 08 PM PDT 11.12 598 0 Normal
08/28/2026 09 PM PDT 11.10 588 - Normal
08/28/2026 10 PM PDT 11.09 583 - Normal
08/28/2026 11 PM PDT 11.08 578 - Normal
08/29/2026 12 AM PDT 11.07 573 - Normal
08/29/2026 01 AM PDT 11.07 573 0 Normal
08/29/2026 02 AM PDT 11.06 568 - Normal
08/29/2026 03 AM PDT 11.06 568 0 Normal
08/29/2026 04 AM PDT 11.05 563 - Normal
08/29/2026 05 AM PDT 11.05 563 0 Normal
08/29/2026 06 AM PDT 11.05 563 0 Normal
08/29/2026 07 AM PDT 11.05 563 0 Normal
08/29/2026 08 AM PDT 11.05 563 0 Normal
08/29/2026 09 AM PDT 11.05 563 0 Normal
08/29/2026 10 AM PDT 11.06 568 + Normal
08/29/2026 11 AM PDT 11.05 563 - Normal
08/29/2026 12 PM PDT 11.06 568 + Normal
08/29/2026 01 PM PDT 11.06 568 0 Normal
08/29/2026 02 PM PDT 11.07 573 + Normal
08/29/2026 03 PM PDT 11.07 573 0 Normal
08/29/2026 04 PM PDT 11.06 568 - Normal
08/29/2026 05 PM PDT 11.06 568 0 Normal
08/29/2026 06 PM PDT 11.06 568 0 Normal
08/29/2026 07 PM PDT 11.06 568 0 Normal
08/29/2026 08 PM PDT 11.14 608 + Normal
08/29/2026 09 PM PDT 11.46 781 + Normal
08/29/2026 10 PM PDT 11.76 965 + Normal
08/29/2026 11 PM PDT 11.90 1057 + Normal
08/30/2026 12 AM PDT 11.96 1098 + Normal
08/30/2026 01 AM PDT 12.00 1126 + Normal
08/30/2026 02 AM PDT 12.01 1133 + Normal
08/30/2026 03 AM PDT 12.02 1140 + Normal
08/30/2026 04 AM PDT 12.04 1154 + Normal
08/30/2026 05 AM PDT 12.04 1154 0 Normal
08/30/2026 06 AM PDT 12.06 1168 + Normal
08/30/2026 07 AM PDT 12.07 1176 + Normal
08/30/2026 08 AM PDT 12.09 1190 + Normal
08/30/2026 09 AM PDT 12.10 1197 + Normal
08/30/2026 10 AM PDT 12.10 1197 0 Normal
08/30/2026 11 AM PDT 12.11 1204 + Normal
08/30/2026 12 PM PDT 12.12 1212 + Normal
08/30/2026 01 PM PDT 12.11 1204 - Normal
08/30/2026 02 PM PDT 12.12 1212 + Normal
08/30/2026 03 PM PDT 12.13 1219 + Normal
08/30/2026 04 PM PDT 12.12 1212 - Normal
08/30/2026 05 PM PDT 12.11 1204 - Normal
08/30/2026 06 PM PDT 12.12 1212 + Normal
08/30/2026 07 PM PDT 12.11 1204 - Normal
08/30/2026 08 PM PDT 12.11 1204 0 Normal
08/30/2026 09 PM PDT 12.10 1197 - Normal
08/30/2026 10 PM PDT 12.10 1197 0 Normal
08/30/2026 11 PM PDT 12.11 1204 + Normal
08/31/2026 12 AM PDT 12.12 1212 + Normal
08/31/2026 01 AM PDT 12.12 1212 0 Normal
08/31/2026 02 AM PDT 12.12 1212 0 Normal
08/31/2026 03 AM PDT 12.13 1219 + Normal
08/31/2026 04 AM PDT 12.13 1219 0 Normal
08/31/2026 05 AM PDT 12.13 1219 0 Normal
08/31/2026 06 AM PDT 12.14 1226 + Normal
08/31/2026 07 AM PDT 12.14 1226 0 Normal
#
# FORECAST
#
# Date & Time (Local) Stage (Feet) Flow (cfs) Trend Forecast Status
# ---------------------------------------------------------------------------------
08/31/2026 08 AM PDT 12.15 1234 Normal
08/31/2026 09 AM PDT 12.15 1234 0 Normal
08/31/2026 10 AM PDT 12.15 1234 0 Normal
08/31/2026 11 AM PDT 12.15 1234 0 Normal
08/31/2026 12 PM PDT 12.14 1226 - Normal
08/31/2026 01 PM PDT 12.14 1226 0 Normal
08/31/2026 02 PM PDT 12.14 1226 0 Normal
08/31/2026 03 PM PDT 12.14 1226 0 Normal
08/31/2026 04 PM PDT 12.14 1226 0 Normal
08/31/2026 05 PM PDT 12.14 1226 0 Normal
08/31/2026 06 PM PDT 12.14 1226 0 Normal
08/31/2026 07 PM PDT 12.14 1226 0 Normal
08/31/2026 08 PM PDT 12.13 1219 - Normal
08/31/2026 09 PM PDT 12.13 1219 0 Normal
08/31/2026 10 PM PDT 12.13 1219 0 Normal
08/31/2026 11 PM PDT 12.13 1219 0 Normal
09/01/2026 12 AM PDT 12.13 1219 0 Normal
09/01/2026 01 AM PDT 12.13 1219 0 Normal
09/01/2026 02 AM PDT 12.14 1226 + Normal
09/01/2026 03 AM PDT 12.14 1226 0 Normal
09/01/2026 04 AM PDT 12.15 1234 + Normal
09/01/2026 05 AM PDT 12.15 1234 0 Normal
09/01/2026 06 AM PDT 12.15 1234 0 Normal
09/01/2026 07 AM PDT 12.15 1234 0 Normal
09/01/2026 08 AM PDT 12.16 1241 + Normal
09/01/2026 09 AM PDT 12.16 1241 0 Normal
09/01/2026 10 AM PDT 12.16 1241 0 Normal
09/01/2026 11 AM PDT 12.16 1241 0 Normal
09/01/2026 12 PM PDT 12.16 1241 0 Normal
09/01/2026 01 PM PDT 12.16 1241 0 Normal
09/01/2026 02 PM PDT 12.16 1241 0 Normal
09/01/2026 03 PM PDT 12.16 1241 0 Normal
09/01/2026 04 PM PDT 12.16 1241 0 Normal
09/01/2026 05 PM PDT 12.16 1241 0 Normal
09/01/2026 06 PM PDT 12.16 1241 0 Normal
09/01/2026 07 PM PDT 12.16 1241 0 Normal
09/01/2026 08 PM PDT 12.16 1241 0 Normal
09/01/2026 09 PM PDT 12.16 1241 0 Normal
09/01/2026 10 PM PDT 12.16 1241 0 Normal
09/01/2026 11 PM PDT 12.16 1241 0 Normal
09/02/2026 12 AM PDT 12.16 1241 0 Normal
09/02/2026 01 AM PDT 12.16 1241 0 Normal
09/02/2026 02 AM PDT 12.16 1241 0 Normal
09/02/2026 03 AM PDT 12.16 1241 0 Normal
09/02/2026 04 AM PDT 12.16 1241 0 Normal
09/02/2026 05 AM PDT 12.16 1241 0 Normal
09/02/2026 06 AM PDT 12.16 1241 0 Normal
09/02/2026 07 AM PDT 12.16 1241 0 Normal
09/02/2026 08 AM PDT 12.16 1241 0 Normal
09/02/2026 09 AM PDT 12.16 1241 0 Normal
09/02/2026 10 AM PDT 12.16 1241 0 Normal
09/02/2026 11 AM PDT 12.16 1241 0 Normal
09/02/2026 12 PM PDT 12.16 1241 0 Normal
09/02/2026 01 PM PDT 12.17 1248 + Normal
09/02/2026 02 PM PDT 12.17 1248 0 Normal
09/02/2026 03 PM PDT 12.17 1248 0 Normal
09/02/2026 04 PM PDT 12.18 1256 + Normal
09/02/2026 05 PM PDT 12.18 1256 0 Normal
09/02/2026 06 PM PDT 12.19 1263 + Normal
09/02/2026 07 PM PDT 12.19 1263 0 Normal
09/02/2026 08 PM PDT 12.19 1263 0 Normal
09/02/2026 09 PM PDT 12.20 1271 + Normal
09/02/2026 10 PM PDT 12.20 1271 0 Normal
09/02/2026 11 PM PDT 12.21 1278 + Normal
09/03/2026 12 AM PDT 12.21 1278 0 Normal
09/03/2026 01 AM PDT 12.21 1278 0 Normal
09/03/2026 02 AM PDT 12.21 1278 0 Normal
09/03/2026 03 AM PDT 12.21 1278 0 Normal
09/03/2026 04 AM PDT 12.22 1286 + Normal
09/03/2026 05 AM PDT 12.22 1286 0 Normal
09/03/2026 06 AM PDT 12.22 1286 0 Normal
09/03/2026 07 AM PDT 12.23 1293 + Normal
09/03/2026 08 AM PDT 12.24 1301 + Normal
09/03/2026 09 AM PDT 12.25 1308 + Normal
09/03/2026 10 AM PDT 12.26 1316 + Normal
09/03/2026 11 AM PDT 12.28 1331 + Normal
09/03/2026 12 PM PDT 12.29 1339 + Normal
09/03/2026 01 PM PDT 12.31 1354 + Normal
09/03/2026 02 PM PDT 12.32 1362 + Normal
09/03/2026 03 PM PDT 12.34 1377 + Normal
09/03/2026 04 PM PDT 12.36 1393 + Normal
09/03/2026 05 PM PDT 12.38 1409 + Normal
09/03/2026 06 PM PDT 12.39 1417 + Normal
09/03/2026 07 PM PDT 12.41 1432 + Normal
09/03/2026 08 PM PDT 12.43 1448 + Normal
09/03/2026 09 PM PDT 12.44 1456 + Normal
09/03/2026 10 PM PDT 12.45 1464 + Normal
09/03/2026 11 PM PDT 12.46 1472 + Normal
09/04/2026 12 AM PDT 12.47 1480 + Normal
09/04/2026 01 AM PDT 12.47 1480 0 Normal
09/04/2026 02 AM PDT 12.48 1489 + Normal
09/04/2026 03 AM PDT 12.48 1489 0 Normal
09/04/2026 04 AM PDT 12.48 1489 0 Normal
09/04/2026 05 AM PDT 12.48 1489 0 Normal
09/04/2026 06 AM PDT 12.48 1489 0 Normal
09/04/2026 07 AM PDT 12.47 1480 - Normal
09/04/2026 08 AM PDT 12.47 1480 0 Normal
09/04/2026 09 AM PDT 12.46 1472 - Normal
09/04/2026 10 AM PDT 12.46 1472 0 Normal
09/04/2026 11 AM PDT 12.45 1464 - Normal
09/04/2026 12 PM PDT 12.44 1456 - Normal
09/04/2026 01 PM PDT 12.43 1448 - Normal
09/04/2026 02 PM PDT 12.42 1440 - Normal
09/04/2026 03 PM PDT 12.41 1432 - Normal
09/04/2026 04 PM PDT 12.40 1424 - Normal
09/04/2026 05 PM PDT 12.39 1417 - Normal
09/04/2026 06 PM PDT 12.38 1409 - Normal
09/04/2026 07 PM PDT 12.37 1401 - Normal
09/04/2026 08 PM PDT 12.36 1393 - Normal
09/04/2026 09 PM PDT 12.35 1385 - Normal
09/04/2026 10 PM PDT 12.34 1377 - Normal
09/04/2026 11 PM PDT 12.33 1370 - Normal
09/05/2026 12 AM PDT 12.32 1362 - Normal
09/05/2026 01 AM PDT 12.31 1354 - Normal
09/05/2026 02 AM PDT 12.30 1346 - Normal
09/05/2026 03 AM PDT 12.30 1346 0 Normal
09/05/2026 04 AM PDT 12.29 1339 - Normal
09/05/2026 05 AM PDT 12.28 1331 - Normal
#
# NOTE 1: Stages are rounded to the nearest hundredth (.01) of a foot.
# NOTE 2: Flows are rounded to the nearest (1) cfs.
# NOTE 3: Trends are determined using hourly change in unrounded stage and flow.
# NOTE 4: Maximum Values are determined using unrounded stage and flow.
|